Weather in Hristinovka

Ukraine / Cherkassi District     48˚48′52″N   29˚58′06″E
temp.,
°C
wind,
m/s
gust,
m/s
humid.,
%
clouds,
%
prec.,
mm/h
press.,
hPa
HPBL,
m
3 december, thu
thu323:00se3595100 0.0 1027332
02:00−1˚ese249498 0.0 1027153
05:00−1˚ese359684 0.0 1026220
08:00ese369292 0.0 1026243
11:00+2˚e578896 0.0 1025288
14:00+2˚ese468895 0.0 1024338
17:00+2˚ese4893100 0.0 1023341
20:00+3˚ese5996100 0.0 1022329
4 december, fri
fri423:00+3˚se51196100 0.0 1022419
02:00+4˚se61193100 0.0 1022396
05:00+4˚sse61093100 0.1 1021659
08:00+4˚sse7109295 0.1 1022609
11:00+6˚se7118696 0.0 1022591
14:00+5˚se7118696 0.0 1021454
17:00+4˚se7119081 0.0 1021475
20:00+3˚se7119591 0.0 1022553
5 december, sat
sat523:00+4˚se61188100 0.0 1023640
02:00+4˚se61190100 0.0 1024526
05:00+4˚se61090100 0.0 1024518
08:00+3˚se61090100 0.0 1025545
11:00+3˚se71184100 0.0 1026570
14:00+4˚se698097 0.0 1026529
17:00+2˚ese5108113 0.0 1027426
20:00+1˚ese511817 0.0 1028456
6 december, sun
sun623:00se6108725 0.0 1028498
02:00−1˚ese6118454 0.0 1029496
05:00−2˚ese611751 0.0 1029489
08:00−2˚ese612660 0.0 1029470
11:00ese610560 0.0 1030521
14:00+1˚ese610540 0.0 1028615
17:00−1˚ese612600 0.0 1028534
20:00−2˚ese714570 0.0 1029608
7 december, mon
mon723:00−2˚ese713540 0.0 1029649
02:00−3˚ese612530 0.0 1029603
05:00−3˚ese713563 0.0 1028567
08:00−4˚ese613563 0.0 1028560
11:00−2˚ese712533 0.0 1028615
14:00ese712522 0.0 1027657
17:00−2˚ese7145742 0.0 1027605
20:00−2˚ese7145665 0.0 1027629